User: anonymous   Login
Location: Unspecified
(0.0000°N, 0.0000°E)
Time: 23:28:33
(UTC+00:00)
Language:

STARLINK-33644 - Orbit

View from above orbital plane
View from above orbital plane
View from above satellite
View from above satellite

Ground track
Ground track

The orbit is defined by the following mean orbital elements,

1 63414U          26145.38435618 +.00000000 +00000-0 +50687-3 0 00006
2 63414  43.0016  34.3908 0000995 268.2192  91.8546 15.27600882    06
Epoch (UTC): 25 May 2026 09:13:28
Eccentricity: 0.0000995
inclination: 43.0016°
perigee height: 482 km
apogee height: 484 km
right ascension of ascending node: 34.3908°
argument of perigee: 268.2192°
revolutions per day: 15.27600882
mean anomaly at epoch: 91.8546°

The dashed part of the orbit path shows where the satellite is in the earth's shadow,  

DLR